Location: Bidwell Hollow
(37.7387°N, 90.1707°W)
Time: 02:11:56
(UTC+00:00)

Vanguard 3 - Pass Details

Date: 15 May 2026
Orbit: 507 x 3204 km, 33.3° (Epoch: 6 June)

Event Time Altitude Azimuth Distance (km) Brightness Sun altitude
Rises 18:30:02 0° 228° (SW) 6,197 11.9 69.9°
Reaches altitude 10° 18:33:51 10° 224° (SW) 5,458 11.8 69.6°
Maximum altitude 18:50:54 55° 152° (SSE) 3,618 11.6 67.9°
Drops below altitude 10° 19:08:51 10° 82° (E) 5,740 11.4 65.6°
Sets 19:12:57 0° 79° (ENE) 6,523 11.5 65.0°
